FW6053 Weather Reports


time (UTC)temp
C
wind
direction
speed
KPH
gust
KPH
rain 1hr
cm
rain 24hr
cm
rain mn
cm
humidity
%
barometer
mb
20260507231608 8 0 0.0 1.6 0.00 0.00 0.00 84 1012.3
20260507230059 8 0 0.0 3.2 0.00 0.00 0.00 84 1012.5
20260507224605 8 0 0.0 3.2 0.00 0.00 0.00 83 1012.3
20260507223053 8 0 0.0 1.6 0.00 0.00 0.00 82 1012.4
20260507221556 8 0 0.0 3.2 0.00 0.00 0.00 81 1012.5
20260507220056 9 0 0.0 1.6 0.00 0.00 0.00 81 1012.3
20260507214607 9 212 0.0 4.8 0.00 0.00 0.00 81 1012.4
20260507213107 9 220 0.0 6.4 0.00 0.00 0.00 80 1012.3
20260507211555 10 213 0.0 4.8 0.00 0.00 0.00 80 1012.2
20260507210056 10 196 1.6 11.3 0.00 0.00 0.00 79 1012.2
20260507204601 10 196 3.2 8.0 0.00 0.00 0.00 79 1012.2
20260507203053 10 227 0.0 4.8 0.00 0.00 0.00 80 1012.2
20260507201553 10 0 0.0 4.8 0.00 0.00 0.00 79 1011.9
20260507200053 10 218 1.6 8.0 0.00 0.00 0.00 78 1011.9
20260507194552 10 230 1.6 11.3 0.00 0.00 0.00 77 1011.9
20260507193106 10 234 4.8 16.1 0.00 0.00 0.00 77 1011.8
20260507191554 11 200 6.4 16.1 0.00 0.00 0.00 76 1011.6
20260507184556 11 188 6.4 14.5 0.00 0.00 0.00 75 1011.5
20260507183057 11 170 3.2 12.9 0.00 0.00 0.00 75 1011.5
20260507181553 11 186 4.8 9.7 0.00 0.00 0.00 74 1011.5
20260507180103 11 188 4.8 12.9 0.00 0.00 0.00 74 1011.3
20260507174552 11 232 3.2 11.3 0.00 0.00 0.00 74 1011.4
20260507173057 11 199 3.2 9.7 0.00 0.00 0.00 75 1011.6
20260507171556 10 237 1.6 6.4 0.00 0.00 0.00 76 1011.5
20260507170054 10 241 3.2 11.3 0.00 0.00 0.00 76 1011.7
20260507164556 10 226 6.4 14.5 0.00 0.00 0.00 77 1011.8
20260507163053 10 175 6.4 17.7 0.00 0.00 0.00 79 1011.9
20260507161556 10 190 6.4 14.5 0.00 0.00 0.00 80 1011.9
20260507160101 10 194 3.2 11.3 0.00 0.00 0.00 81 1012.0
20260507154553 10 209 1.6 11.3 0.00 0.00 0.00 83 1012.1
20260507153058 10 200 3.2 9.7 0.00 0.00 0.00 84 1012.2
20260507151554 10 211 3.2 11.3 0.00 0.00 0.00 84 1012.2
20260507150054 10 0 3.2 17.7 0.00 0.00 0.00 82 1012.2
20260507144558 10 268 8.0 19.3 0.00 0.00 0.00 78 1012.1
20260507143056 11 233 6.4 17.7 0.00 0.00 0.00 74 1012.1
20260507141601 11 229 11.3 22.5 0.00 0.00 0.00 72 1012.1
20260507140108 11 191 6.4 29.0 0.00 0.00 0.00 73 1012.3
20260507134552 11 190 8.0 17.7 0.00 0.00 0.00 73 1012.2
20260507133052 11 178 6.4 16.1 0.00 0.00 0.00 73 1012.4
20260507131604 11 205 4.8 17.7 0.00 0.00 0.00 73 1012.5
20260507130110 11 187 4.8 20.9 0.00 0.00 0.00 74 1012.5
20260507124604 11 202 11.3 20.9 0.00 0.00 0.00 75 1012.7
20260507123059 10 199 8.0 17.7 0.00 0.00 0.00 76 1012.8
20260507121557 10 185 8.0 19.3 0.00 0.00 0.00 78 1012.9
20260507120056 10 165 11.3 19.3 0.00 0.00 0.00 78 1013.0
20260507114604 10 188 4.8 11.3 0.00 0.00 0.00 78 1013.0
20260507113051 10 173 8.0 16.1 0.00 0.00 0.00 77 1013.1
20260507111555 10 200 6.4 12.9 0.00 0.00 0.00 74 1013.2
20260507110052 10 156 3.2 12.9 0.00 0.00 0.00 73 1013.1
20260507104554 10 171 4.8 12.9 0.00 0.00 0.00 73 1013.2
20260507103058 10 168 4.8 12.9 0.00 0.00 0.00 72 1013.2
20260507101555 10 145 6.4 16.1 0.00 0.00 0.00 72 1013.1
20260507100111 10 176 6.4 11.3 0.00 0.00 0.00 72 1013.0
20260507094600 10 190 3.2 11.3 0.00 0.00 0.00 73 1013.4
20260507093108 10 148 3.2 8.0 0.00 0.00 0.00 73 1013.5
20260507091611 9 192 4.8 8.0 0.00 0.00 0.00 73 1013.4
20260507090100 9 167 4.8 9.7 0.00 0.00 0.00 73 1013.6
20260507084558 8 180 6.4 11.3 0.00 0.00 0.00 73 1013.6
20260507083107 8 179 6.4 11.3 0.00 0.00 0.00 73 1013.5
20260507081555 8 130 1.6 9.7 0.00 0.00 0.00 75 1013.7
20260507080121 8 84 1.6 6.4 0.00 0.00 0.00 76 1013.8
20260507074601 8 96 0.0 6.4 0.00 0.00 0.00 77 1013.9
20260507073118 7 0 0.0 9.7 0.00 0.00 0.00 77 1013.8
20260507071603 7 88 3.2 9.7 0.00 0.00 0.00 79 1013.7
20260507070054 7 84 3.2 9.7 0.00 0.00 0.00 80 1013.7
20260507064559 6 62 3.2 6.4 0.00 0.00 0.00 82 1013.7
20260507063058 6 52 1.6 9.7 0.00 0.00 0.00 82 1013.7
20260507061554 6 49 1.6 6.4 0.00 0.00 0.00 83 1013.8
20260507060053 5 0 1.6 6.4 0.00 0.00 0.00 83 1013.8
20260507054603 5 63 1.6 6.4 0.00 0.00 0.00 83 1013.7
20260507053056 5 54 1.6 6.4 0.00 0.00 0.00 83 1013.8
20260507051552 5 55 1.6 6.4 0.00 0.00 0.00 84 1013.9
20260507050057 5 59 1.6 6.4 0.00 0.00 0.00 85 1013.9
20260507044600 4 0 0.0 3.2 0.00 0.00 0.00 85 1013.9
20260507043052 4 0 0.0 0.0 0.00 0.00 0.00 85 1013.9
20260507041559 4 0 0.0 0.0 0.00 0.00 0.00 85 1013.8
20260507040105 3 0 0.0 0.0 0.00 0.00 0.00 84 1013.7
20260507034558 3 0 0.0 1.6 0.00 0.00 0.00 83 1013.8
20260507033057 4 0 0.0 0.0 0.00 0.00 0.00 82 1014.0
20260507031550 4 0 0.0 0.0 0.00 0.00 0.00 82 1014.0
20260507030056 4 0 0.0 0.0 0.00 0.00 0.00 82 1014.0
20260507024553 5 0 0.0 1.6 0.00 0.00 0.00 82 1014.1
20260507023052 5 0 0.0 0.0 0.00 0.00 0.00 81 1014.2
20260507021552 5 0 0.0 1.6 0.00 0.00 0.00 80 1014.2
20260507014602 6 0 0.0 0.0 0.00 0.00 0.00 78 1014.2
20260507013050 6 0 0.0 0.0 0.00 0.00 0.00 78 1014.3
20260507011602 6 0 0.0 6.4 0.00 0.00 0.00 78 1014.5
20260507010055 6 80 1.6 4.8 0.00 0.00 0.00 78 1014.6
20260507004556 6 84 1.6 4.8 0.00 0.00 0.00 77 1014.8
20260507003056 6 85 1.6 6.4 0.00 0.00 0.00 77 1014.7
20260507001613 6 19 1.6 11.3 0.00 0.00 0.00 77 1014.9
20260507000059 6 79 1.6 6.4 0.00 0.00 0.00 77 1015.0
20260506234558 6 75 1.6 9.7 0.00 0.00 0.00 77 1015.1
20260506233056 6 93 3.2 11.3 0.00 0.00 0.00 77 1015.1